STARLINK-32391, 61855

Orbit data source: Space-Track

STARLINK-32391, 61855 is a payload satellite owned by SpaceX/Seattle (US) in LEO that was launched on Thu, 07 Nov 2024 UTC via an FALCON 9 launch vehicle from the Air Force Eastern Test Range (AFETR). Payload-class satellites include a variety of spacecraft equipped with specific instruments for various scientific and technological missions. These include communications satellites like Starlink; space stations such as the ISS; scientific satellites like the Hubble; Earth observation satellites from companies like Planet Labs, Umbra, and HawkEye 360; GPS; miniature CubeSats for education and research; and military/defense satellites.

Loading next visibility...
Identifier
61855, 2024-202L
Orbit
LEO
Country
Flag of USUS
Related business
Manufacturer
SpaceX/Seattle
Mission
Operational Commercial Communications
Bus & Motor
STARLINK V2M, Unknown motor
Mass
730 kg wet, ~700 kg dry
Launch date (UTC)
2024-11-07 (1 year ago)
Launch vehicle
FALCON 9
Launch site
Air Force Eastern Test Range (AFETR)
Object type
Payload
Rocket body
Debris
Shape & HBR
Box + 2 Pan, 17.7 m
Radar Cross Section
33.884 m², Large (>1 m²)

Expand to show TLE details & history
Last TLE update: 13 hours ago

TLE from 13 hours ago
0 STARLINK-32391
1 61855U 24202L   26035.10717089  .00000211  00000-0  17199-4 0  9999
2 61855  42.9999  67.4670 0000743 276.3828  83.6939 15.27569967 70191
Epoch: 2026-02-04T02:34Z
TLE epoch observation values (Epoch: 2026-02-04T02:34:19.564Z)
Latitude
-0.00004°
Longitude
-105.39306°
Altitude
482.799 km
Speed
7.626 km/s
True Right ascension
04h 29m 52s
True Declination
0° 00' 00"
Sunlit
Object was in daylight at epoch
Visualization orbit readout
Latitude
Unknown
Longitude
Unknown
Altitude
Unknown
Speed
Unknown
Apparent Right ascension
Unknown
Apparent Declination
Unknown
Sunlit
N/A
Visualization observer readout
Local Sidereal Time
17:19:17
Azimuth
Unknown
Elevation
Unknown
Doppler factor
Unknown
Orbital elements
Apogee altitude
485.534 km
Perigee altitude
484.514 km
Semi-major axis
6,863.161 km
Eccentricity
0.00007
Inclination
42.9999°
RAAN
67.467°
Arg. of periapsis
276.3828°
True anomaly
83.70236°
Mean anomaly
83.6939°
Eccentric anomaly
83.69813°
Mean motion
3.8173 °/min
Orbital period
94.31 mins
BSTAR
0.000017199
Loading maneuver chart data...
Computing Atmospheric mass density...
Loading historical data...
Loading historical data...
Loading historical data...
Loading historical data...
Loading historical data...
Loading historical data...
Loading historical data...

Documentation

Showing up to 5 results
|